| time (UTC) | temp C | wind direction | speed KPH | gust KPH | rain 1hr cm | rain 24hr cm | rain mn cm | humidity % | barometer mb |
| 20260906111038 | 22 | 302 | 0.0 | 0.0 | 0.00 | 0.00 | 0.00 | 90 | 1016.2 |
| 20260906110537 | 22 | 307 | 0.0 | 0.0 | 0.00 | 0.00 | 0.00 | 90 | 1016.4 |
| 20260906110037 | 22 | 294 | 0.0 | 0.0 | 0.00 | 0.00 | 0.00 | 90 | 1016.0 |
| 20260906105532 | 22 | 291 | 0.0 | 0.0 | 0.00 | 0.00 | 0.00 | 90 | 1015.8 |
| 20260906105028 | 22 | 279 | 1.6 | 1.6 | 0.00 | 0.00 | 0.00 | 90 | 1015.9 |
| 20260906104526 | 22 | 302 | 0.0 | 0.0 | 0.00 | 0.00 | 0.00 | 90 | 1015.9 |
| 20260906104021 | 22 | 302 | 3.2 | 3.2 | 0.00 | 0.00 | 0.00 | 90 | 1015.8 |
| 20260906103519 | 22 | 305 | 0.0 | 0.0 | 0.00 | 0.00 | 0.00 | 90 | 1016.3 |
| 20260906103014 | 22 | 308 | 0.0 | 0.0 | 0.00 | 0.00 | 0.00 | 90 | 1016.3 |
| 20260906102509 | 22 | 308 | 0.0 | 0.0 | 0.00 | 0.00 | 0.00 | 90 | 1016.0 |
| 20260906102009 | 22 | 308 | 0.0 | 1.6 | 0.00 | 0.00 | 0.00 | 90 | 1015.9 |
| 20260906101503 | 22 | 303 | 0.0 | 0.0 | 0.00 | 0.00 | 0.00 | 90 | 1015.9 |
| 20260906100958 | 22 | 309 | 0.0 | 1.6 | 0.00 | 0.00 | 0.00 | 90 | 1016.2 |
| 20260906100453 | 22 | 303 | 0.0 | 0.0 | 0.00 | 0.00 | 0.00 | 90 | 1016.0 |
| 20260906095948 | 22 | 303 | 0.0 | 0.0 | 0.00 | 0.00 | 0.00 | 90 | 1015.9 |
| 20260906095443 | 22 | 303 | 0.0 | 1.6 | 0.00 | 0.00 | 0.00 | 90 | 1015.9 |
| 20260906094938 | 22 | 304 | 0.0 | 0.0 | 0.00 | 0.00 | 0.00 | 91 | 1015.8 |
| 20260906094432 | 22 | 309 | 0.0 | 0.0 | 0.00 | 0.00 | 0.00 | 90 | 1015.8 |
| 20260906093928 | 21 | 303 | 0.0 | 0.0 | 0.00 | 0.00 | 0.00 | 91 | 1015.8 |
| 20260906093424 | 21 | 303 | 0.0 | 0.0 | 0.00 | 0.00 | 0.00 | 91 | 1015.9 |
| 20260906092919 | 21 | 303 | 0.0 | 0.0 | 0.00 | 0.00 | 0.00 | 91 | 1015.8 |
| 20260906092418 | 21 | 303 | 0.0 | 0.0 | 0.00 | 0.00 | 0.00 | 91 | 1015.8 |
| 20260906091914 | 21 | 304 | 0.0 | 0.0 | 0.00 | 0.00 | 0.00 | 91 | 1015.6 |
| 20260906091410 | 21 | 206 | 3.2 | 3.2 | 0.00 | 0.00 | 0.00 | 90 | 1015.6 |
| 20260906090906 | 21 | 301 | 0.0 | 0.0 | 0.00 | 0.00 | 0.00 | 91 | 1015.5 |
| 20260906090406 | 21 | 306 | 0.0 | 0.0 | 0.00 | 0.00 | 0.00 | 91 | 1015.6 |
| 20260906085901 | 21 | 306 | 0.0 | 0.0 | 0.00 | 0.00 | 0.00 | 91 | 1015.4 |
| 20260906085400 | 21 | 306 | 0.0 | 0.0 | 0.00 | 0.00 | 0.00 | 91 | 1015.6 |
| 20260906084900 | 21 | 301 | 0.0 | 0.0 | 0.00 | 0.00 | 0.00 | 91 | 1015.4 |
| 20260906084354 | 21 | 306 | 1.6 | 1.6 | 0.00 | 0.00 | 0.00 | 91 | 1015.4 |
| 20260906083848 | 21 | 301 | 0.0 | 0.0 | 0.00 | 0.00 | 0.00 | 91 | 1015.3 |
| 20260906083344 | 21 | 306 | 0.0 | 1.6 | 0.00 | 0.00 | 0.00 | 91 | 1015.4 |
| 20260906082844 | 21 | 297 | 0.0 | 0.0 | 0.00 | 0.00 | 0.00 | 91 | 1015.1 |
| 20260906082338 | 21 | 273 | 1.6 | 1.6 | 0.00 | 0.00 | 0.00 | 91 | 1015.1 |
| 20260906081835 | 21 | 294 | 0.0 | 0.0 | 0.00 | 0.00 | 0.00 | 91 | 1015.0 |
| 20260906081330 | 21 | 285 | 1.6 | 1.6 | 0.00 | 0.00 | 0.00 | 91 | 1015.3 |
| 20260906080826 | 21 | 307 | 0.0 | 0.0 | 0.00 | 0.00 | 0.00 | 91 | 1015.1 |
| 20260906080322 | 21 | 302 | 0.0 | 0.0 | 0.00 | 0.00 | 0.00 | 92 | 1015.2 |
| 20260906075821 | 21 | 303 | 0.0 | 0.0 | 0.00 | 0.00 | 0.00 | 93 | 1015.0 |
| 20260906075316 | 21 | 307 | 0.0 | 0.0 | 0.00 | 0.00 | 0.00 | 93 | 1015.1 |
| 20260906074812 | 21 | 302 | 0.0 | 0.0 | 0.00 | 0.00 | 0.00 | 93 | 1015.1 |
| 20260906074311 | 21 | 302 | 0.0 | 1.6 | 0.00 | 0.00 | 0.00 | 93 | 1015.0 |
| 20260906073810 | 21 | 305 | 1.6 | 1.6 | 0.00 | 0.00 | 0.00 | 93 | 1014.8 |
| 20260906073305 | 21 | 289 | 0.0 | 1.6 | 0.00 | 0.00 | 0.00 | 92 | 1014.9 |
| 20260906072801 | 21 | 302 | 0.0 | 0.0 | 0.00 | 0.00 | 0.00 | 92 | 1015.0 |
| 20260906072257 | 21 | 302 | 0.0 | 0.0 | 0.00 | 0.00 | 0.00 | 91 | 1014.9 |
| 20260906071753 | 21 | 302 | 0.0 | 0.0 | 0.00 | 0.00 | 0.00 | 91 | 1014.8 |
| 20260906071253 | 21 | 287 | 1.6 | 1.6 | 0.00 | 0.00 | 0.00 | 91 | 1014.9 |
| 20260906070749 | 21 | 303 | 0.0 | 0.0 | 0.00 | 0.00 | 0.00 | 91 | 1015.1 |
| 20260906070244 | 21 | 302 | 0.0 | 0.0 | 0.00 | 0.00 | 0.00 | 91 | 1015.1 |
| 20260906065744 | 21 | 302 | 0.0 | 0.0 | 0.00 | 0.00 | 0.00 | 91 | 1015.0 |
| 20260906065239 | 21 | 301 | 1.6 | 1.6 | 0.00 | 0.00 | 0.00 | 91 | 1015.2 |
| 20260906064735 | 21 | 302 | 1.6 | 1.6 | 0.00 | 0.00 | 0.00 | 91 | 1015.0 |
| 20260906064230 | 21 | 303 | 0.0 | 0.0 | 0.00 | 0.00 | 0.00 | 90 | 1015.2 |
| 20260906063725 | 21 | 308 | 1.6 | 1.6 | 0.00 | 0.00 | 0.00 | 90 | 1015.4 |
| 20260906063221 | 21 | 300 | 1.6 | 3.2 | 0.00 | 0.00 | 0.00 | 90 | 1015.3 |
| 20260906062716 | 21 | 302 | 1.6 | 1.6 | 0.00 | 0.00 | 0.00 | 89 | 1015.5 |
| 20260906062215 | 21 | 290 | 1.6 | 1.6 | 0.00 | 0.00 | 0.00 | 89 | 1015.5 |
| 20260906061711 | 21 | 302 | 1.6 | 1.6 | 0.00 | 0.00 | 0.00 | 89 | 1015.4 |
| 20260906061207 | 21 | 287 | 1.6 | 3.2 | 0.00 | 0.00 | 0.00 | 89 | 1015.5 |
| 20260906060703 | 21 | 302 | 1.6 | 3.2 | 0.00 | 0.00 | 0.00 | 88 | 1015.5 |
| 20260906060200 | 21 | 309 | 1.6 | 1.6 | 0.00 | 0.00 | 0.00 | 88 | 1015.5 |
| 20260906055655 | 21 | 294 | 1.6 | 1.6 | 0.00 | 0.00 | 0.00 | 88 | 1015.4 |
| 20260906055150 | 21 | 299 | 1.6 | 3.2 | 0.00 | 0.00 | 0.00 | 88 | 1015.5 |
| 20260906054645 | 21 | 295 | 1.6 | 1.6 | 0.00 | 0.00 | 0.00 | 87 | 1015.6 |
| 20260906054140 | 22 | 299 | 3.2 | 3.2 | 0.00 | 0.00 | 0.00 | 87 | 1015.7 |
| 20260906053638 | 22 | 302 | 1.6 | 1.6 | 0.00 | 0.00 | 0.00 | 87 | 1015.6 |
| 20260906053138 | 22 | 304 | 1.6 | 1.6 | 0.00 | 0.00 | 0.00 | 87 | 1015.8 |
| 20260906052634 | 22 | 302 | 1.6 | 1.6 | 0.00 | 0.00 | 0.00 | 87 | 1015.7 |
| 20260906052130 | 22 | 303 | 1.6 | 1.6 | 0.00 | 0.00 | 0.00 | 87 | 1015.8 |
| 20260906051626 | 22 | 302 | 0.0 | 1.6 | 0.00 | 0.00 | 0.00 | 86 | 1015.7 |
| 20260906051126 | 22 | 303 | 1.6 | 1.6 | 0.00 | 0.00 | 0.00 | 86 | 1015.5 |
| 20260906050621 | 22 | 301 | 1.6 | 1.6 | 0.00 | 0.00 | 0.00 | 86 | 1015.4 |
| 20260906050117 | 22 | 302 | 0.0 | 1.6 | 0.00 | 0.00 | 0.00 | 85 | 1015.3 |
| 20260906045614 | 22 | 303 | 1.6 | 1.6 | 0.00 | 0.00 | 0.00 | 84 | 1015.4 |
| 20260906045110 | 22 | 303 | 1.6 | 1.6 | 0.00 | 0.00 | 0.00 | 84 | 1015.5 |
| 20260906044606 | 22 | 298 | 1.6 | 1.6 | 0.00 | 0.00 | 0.00 | 84 | 1015.4 |
| 20260906044100 | 22 | 309 | 0.0 | 1.6 | 0.00 | 0.00 | 0.00 | 83 | 1015.3 |
| 20260906043557 | 22 | 300 | 3.2 | 3.2 | 0.00 | 0.00 | 0.00 | 83 | 1015.3 |
| 20260906043053 | 22 | 308 | 1.6 | 1.6 | 0.00 | 0.00 | 0.00 | 83 | 1015.5 |
| 20260906042551 | 22 | 302 | 1.6 | 1.6 | 0.00 | 0.00 | 0.00 | 82 | 1015.2 |
| 20260906042046 | 22 | 308 | 1.6 | 1.6 | 0.00 | 0.00 | 0.00 | 82 | 1015.3 |
| 20260906041542 | 23 | 306 | 3.2 | 3.2 | 0.00 | 0.00 | 0.00 | 81 | 1015.3 |
| 20260906041037 | 23 | 303 | 1.6 | 1.6 | 0.00 | 0.00 | 0.00 | 81 | 1015.4 |
| 20260906040532 | 23 | 308 | 1.6 | 1.6 | 0.00 | 0.00 | 0.00 | 80 | 1015.4 |
| 20260906040028 | 23 | 297 | 1.6 | 1.6 | 0.00 | 0.00 | 0.00 | 80 | 1015.4 |
| 20260906035523 | 23 | 302 | 1.6 | 1.6 | 0.00 | 0.00 | 0.00 | 79 | 1015.5 |
| 20260906035019 | 23 | 302 | 0.0 | 1.6 | 0.00 | 0.00 | 0.00 | 79 | 1015.6 |
| 20260906034518 | 23 | 302 | 0.0 | 1.6 | 0.00 | 0.00 | 0.00 | 78 | 1015.5 |
| 20260906034014 | 23 | 308 | 0.0 | 0.0 | 0.00 | 0.00 | 0.00 | 77 | 1015.4 |
| 20260906033508 | 23 | 308 | 0.0 | 0.0 | 0.00 | 0.00 | 0.00 | 76 | 1015.7 |
| 20260906033004 | 24 | 309 | 0.0 | 0.0 | 0.00 | 0.00 | 0.00 | 76 | 1016.3 |
| 20260906032455 | 24 | 302 | 0.0 | 0.0 | 0.00 | 0.00 | 0.00 | 75 | 1015.6 |
| 20260906031954 | 25 | 302 | 0.0 | 0.0 | 0.00 | 0.00 | 0.00 | 75 | 1015.5 |
| 20260906031450 | 25 | 326 | 0.0 | 1.6 | 0.00 | 0.00 | 0.00 | 73 | 1015.4 |
| 20260906030945 | 25 | 288 | 3.2 | 3.2 | 0.00 | 0.00 | 0.00 | 73 | 1015.8 |
| 20260906030440 | 25 | 347 | 1.6 | 3.2 | 0.00 | 0.00 | 0.00 | 73 | 1015.5 |
| 20260906025934 | 25 | 310 | 3.2 | 3.2 | 0.00 | 0.00 | 0.00 | 73 | 1015.4 |
| 20260906025428 | 25 | 303 | 0.0 | 1.6 | 0.00 | 0.00 | 0.00 | 73 | 1015.4 |
| 20260906024927 | 25 | 300 | 0.0 | 1.6 | 0.00 | 0.00 | 0.00 | 72 | 1015.6 |
| 20260906024426 | 25 | 218 | 3.2 | 3.2 | 0.00 | 0.00 | 0.00 | 73 | 1015.6 |
| 20260906023922 | 25 | 276 | 3.2 | 3.2 | 0.00 | 0.00 | 0.00 | 72 | 1015.2 |
| 20260906023418 | 25 | 300 | 0.0 | 1.6 | 0.00 | 0.00 | 0.00 | 72 | 1015.3 |
| 20260906022918 | 25 | 221 | 4.8 | 4.8 | 0.00 | 0.00 | 0.00 | 73 | 1015.2 |
| 20260906022413 | 25 | 292 | 0.0 | 0.0 | 0.00 | 0.00 | 0.00 | 73 | 1015.2 |
| 20260906021909 | 25 | 299 | 1.6 | 1.6 | 0.00 | 0.00 | 0.00 | 72 | 1015.1 |
| 20260906021408 | 25 | 299 | 1.6 | 3.2 | 0.00 | 0.00 | 0.00 | 72 | 1015.3 |
| 20260906020903 | 25 | 299 | 1.6 | 1.6 | 0.00 | 0.00 | 0.00 | 71 | 1015.2 |
| 20260906020357 | 25 | 299 | 1.6 | 1.6 | 0.00 | 0.00 | 0.00 | 71 | 1015.4 |
| 20260906015852 | 25 | 300 | 0.0 | 1.6 | 0.00 | 0.00 | 0.00 | 70 | 1015.0 |
| 20260906015351 | 26 | 300 | 1.6 | 1.6 | 0.00 | 0.00 | 0.00 | 69 | 1015.0 |
| 20260906014845 | 26 | 315 | 3.2 | 3.2 | 0.00 | 0.00 | 0.00 | 68 | 1014.8 |
| 20260906014345 | 26 | 302 | 1.6 | 1.6 | 0.00 | 0.00 | 0.00 | 67 | 1014.9 |
| 20260906013841 | 26 | 288 | 0.0 | 1.6 | 0.00 | 0.00 | 0.00 | 68 | 1015.0 |
| 20260906013336 | 26 | 300 | 0.0 | 1.6 | 0.00 | 0.00 | 0.00 | 68 | 1014.8 |
| 20260906012832 | 26 | 312 | 0.0 | 0.0 | 0.00 | 0.00 | 0.00 | 67 | 1014.9 |
| 20260906012327 | 26 | 300 | 0.0 | 1.6 | 0.00 | 0.00 | 0.00 | 66 | 1014.5 |
| 20260906011827 | 26 | 300 | 0.0 | 0.0 | 0.00 | 0.00 | 0.00 | 66 | 1014.6 |
| 20260906011321 | 26 | 300 | 0.0 | 1.6 | 0.00 | 0.00 | 0.00 | 65 | 1014.4 |
| 20260906010818 | 27 | 312 | 0.0 | 0.0 | 0.00 | 0.00 | 0.00 | 64 | 1014.5 |
| 20260906010314 | 27 | 300 | 0.0 | 0.0 | 0.00 | 0.00 | 0.00 | 64 | 1014.3 |
| 20260906005809 | 27 | 290 | 0.0 | 1.6 | 0.00 | 0.00 | 0.00 | 63 | 1014.4 |
| 20260906005307 | 27 | 290 | 1.6 | 3.2 | 0.00 | 0.00 | 0.00 | 62 | 1014.4 |
| 20260906004806 | 27 | 295 | 1.6 | 1.6 | 0.00 | 0.00 | 0.00 | 62 | 1014.6 |
| 20260906004301 | 27 | 299 | 1.6 | 1.6 | 0.00 | 0.00 | 0.00 | 61 | 1014.3 |
| 20260906003756 | 27 | 288 | 0.0 | 1.6 | 0.00 | 0.00 | 0.00 | 61 | 1014.2 |
| 20260906003252 | 27 | 295 | 1.6 | 1.6 | 0.00 | 0.00 | 0.00 | 61 | 1014.0 |
| 20260906002747 | 28 | 296 | 4.8 | 4.8 | 0.00 | 0.00 | 0.00 | 60 | 1014.1 |
| 20260906002247 | 28 | 291 | 1.6 | 3.2 | 0.00 | 0.00 | 0.00 | 61 | 1014.0 |
| 20260906001742 | 28 | 310 | 3.2 | 4.8 | 0.00 | 0.00 | 0.00 | 59 | 1014.0 |
| 20260906001237 | 28 | 298 | 3.2 | 3.2 | 0.00 | 0.00 | 0.00 | 59 | 1014.0 |
| 20260906000733 | 28 | 317 | 0.0 | 1.6 | 0.00 | 0.00 | 0.00 | 59 | 1014.1 |
| 20260906000234 | 28 | 332 | 1.6 | 1.6 | 0.00 | 0.00 | 0.00 | 59 | 1014.0 |
| 20260905235733 | 28 | 298 | 3.2 | 3.2 | 0.00 | 0.00 | 0.00 | 58 | 1013.8 |
| 20260905235227 | 28 | 291 | 4.8 | 8.0 | 0.00 | 0.00 | 0.00 | 58 | 1013.5 |
| 20260905234723 | 29 | 288 | 6.4 | 8.0 | 0.00 | 0.00 | 0.00 | 57 | 1013.7 |
| 20260905234218 | 29 | 24 | 3.2 | 4.8 | 0.00 | 0.00 | 0.00 | 58 | 1013.6 |
| 20260905233713 | 29 | 308 | 3.2 | 3.2 | 0.00 | 0.00 | 0.00 | 57 | 1013.6 |
| 20260905233212 | 29 | 307 | 1.6 | 1.6 | 0.00 | 0.00 | 0.00 | 58 | 1013.8 |
| 20260905232707 | 30 | 314 | 1.6 | 1.6 | 0.00 | 0.00 | 0.00 | 57 | 1013.7 |
| 20260905232203 | 30 | 299 | 4.8 | 8.0 | 0.00 | 0.00 | 0.00 | 57 | 1013.6 |
| 20260905231659 | 30 | 296 | 1.6 | 3.2 | 0.00 | 0.00 | 0.00 | 57 | 1013.8 |
| 20260905231154 | 30 | 272 | 4.8 | 4.8 | 0.00 | 0.00 | 0.00 | 56 | 1013.8 |
| 20260905230650 | 30 | 286 | 4.8 | 8.0 | 0.00 | 0.00 | 0.00 | 55 | 1013.9 |
| 20260905230148 | 31 | 298 | 3.2 | 3.2 | 0.00 | 0.00 | 0.00 | 53 | 1013.7 |
| 20260905225647 | 31 | 299 | 4.8 | 4.8 | 0.00 | 0.00 | 0.00 | 54 | 1013.8 |
| 20260905225142 | 31 | 286 | 1.6 | 3.2 | 0.00 | 0.00 | 0.00 | 53 | 1013.8 |
| 20260905224641 | 31 | 291 | 3.2 | 3.2 | 0.00 | 0.00 | 0.00 | 53 | 1013.6 |
| 20260905224136 | 31 | 289 | 1.6 | 3.2 | 0.00 | 0.00 | 0.00 | 52 | 1013.7 |
| 20260905223633 | 31 | 298 | 3.2 | 4.8 | 0.00 | 0.00 | 0.00 | 52 | 1013.8 |
| 20260905223130 | 31 | 304 | 11.3 | 14.5 | 0.00 | 0.00 | 0.00 | 52 | 1013.6 |
| 20260905222625 | 32 | 260 | 9.7 | 12.9 | 0.00 | 0.00 | 0.00 | 51 | 1013.6 |
| 20260905222120 | 32 | 301 | 11.3 | 14.5 | 0.00 | 0.00 | 0.00 | 51 | 1013.6 |
| 20260905221615 | 32 | 295 | 3.2 | 4.8 | 0.00 | 0.00 | 0.00 | 52 | 1013.6 |
| 20260905221112 | 32 | 284 | 1.6 | 1.6 | 0.00 | 0.00 | 0.00 | 52 | 1013.6 |
| 20260905220607 | 32 | 288 | 3.2 | 3.2 | 0.00 | 0.00 | 0.00 | 53 | 1013.5 |
| 20260905215602 | 32 | 292 | 3.2 | 3.2 | 0.00 | 0.00 | 0.00 | 53 | 1013.5 |
| 20260905215058 | 32 | 286 | 6.4 | 9.7 | 0.00 | 0.00 | 0.00 | 53 | 1013.5 |
| 20260905214554 | 32 | 276 | 8.0 | 9.7 | 0.00 | 0.00 | 0.00 | 52 | 1013.3 |
| 20260905214049 | 32 | 282 | 9.7 | 9.7 | 0.00 | 0.00 | 0.00 | 53 | 1013.5 |
| 20260905213544 | 32 | 300 | 0.0 | 1.6 | 0.00 | 0.00 | 0.00 | 54 | 1013.4 |
| 20260905213039 | 32 | 297 | 6.4 | 11.3 | 0.00 | 0.00 | 0.00 | 54 | 1013.2 |
| 20260905212534 | 31 | 293 | 3.2 | 3.2 | 0.00 | 0.00 | 0.00 | 55 | 1013.0 |
| 20260905212034 | 31 | 282 | 4.8 | 8.0 | 0.00 | 0.00 | 0.00 | 55 | 1012.9 |
| 20260905211529 | 31 | 262 | 4.8 | 4.8 | 0.00 | 0.00 | 0.00 | 55 | 1013.0 |
| 20260905211025 | 31 | 286 | 1.6 | 3.2 | 0.00 | 0.00 | 0.00 | 55 | 1013.0 |
| 20260905210520 | 31 | 291 | 4.8 | 8.0 | 0.00 | 0.00 | 0.00 | 55 | 1013.3 |
| 20260905210020 | 31 | 289 | 1.6 | 3.2 | 0.00 | 0.00 | 0.00 | 54 | 1013.3 |
| 20260905205514 | 31 | 297 | 4.8 | 8.0 | 0.00 | 0.00 | 0.00 | 54 | 1013.0 |
| 20260905205013 | 31 | 312 | 4.8 | 4.8 | 0.00 | 0.00 | 0.00 | 54 | 1013.2 |
| 20260905204509 | 31 | 284 | 8.0 | 9.7 | 0.00 | 0.00 | 0.00 | 54 | 1013.2 |
| 20260905204009 | 31 | 271 | 4.8 | 8.0 | 0.00 | 0.00 | 0.00 | 53 | 1013.2 |
| 20260905203504 | 31 | 324 | 8.0 | 11.3 | 0.00 | 0.00 | 0.00 | 53 | 1013.2 |
| 20260905202959 | 31 | 276 | 1.6 | 3.2 | 0.00 | 0.00 | 0.00 | 53 | 1013.0 |
| 20260905202454 | 31 | 323 | 4.8 | 4.8 | 0.00 | 0.00 | 0.00 | 52 | 1013.2 |
| 20260905201949 | 32 | 284 | 4.8 | 8.0 | 0.00 | 0.00 | 0.00 | 50 | 1013.3 |
| 20260905201445 | 32 | 296 | 8.0 | 12.9 | 0.00 | 0.00 | 0.00 | 51 | 1012.8 |
| 20260905200944 | 32 | 286 | 6.4 | 9.7 | 0.00 | 0.00 | 0.00 | 50 | 1012.9 |
| 20260905200440 | 32 | 295 | 4.8 | 4.8 | 0.00 | 0.00 | 0.00 | 50 | 1012.8 |
| 20260905195939 | 32 | 296 | 3.2 | 3.2 | 0.00 | 0.00 | 0.00 | 49 | 1012.8 |
| 20260905195434 | 32 | 299 | 3.2 | 3.2 | 0.00 | 0.00 | 0.00 | 51 | 1012.6 |
| 20260905194930 | 32 | 247 | 11.3 | 14.5 | 0.00 | 0.00 | 0.00 | 50 | 1012.9 |
| 20260905194428 | 32 | 305 | 6.4 | 8.0 | 0.00 | 0.00 | 0.00 | 49 | 1012.8 |
| 20260905193923 | 32 | 287 | 4.8 | 4.8 | 0.00 | 0.00 | 0.00 | 49 | 1012.7 |
| 20260905193418 | 31 | 304 | 9.7 | 12.9 | 0.00 | 0.00 | 0.00 | 49 | 1012.9 |
| 20260905192913 | 32 | 294 | 3.2 | 3.2 | 0.00 | 0.00 | 0.00 | 49 | 1012.9 |
| 20260905192409 | 31 | 323 | 4.8 | 4.8 | 0.00 | 0.00 | 0.00 | 49 | 1013.3 |
| 20260905191909 | 32 | 286 | 4.8 | 8.0 | 0.00 | 0.00 | 0.00 | 48 | 1013.3 |
| 20260905191408 | 32 | 282 | 4.8 | 8.0 | 0.00 | 0.00 | 0.00 | 48 | 1013.2 |
| 20260905190902 | 32 | 299 | 4.8 | 8.0 | 0.00 | 0.00 | 0.00 | 50 | 1013.2 |
| 20260905190354 | 32 | 280 | 6.4 | 9.7 | 0.00 | 0.00 | 0.00 | 50 | 1013.4 |
| 20260905185853 | 32 | 28 | 4.8 | 8.0 | 0.00 | 0.00 | 0.00 | 51 | 1013.5 |
| 20260905185348 | 32 | 304 | 4.8 | 4.8 | 0.00 | 0.00 | 0.00 | 53 | 1013.8 |
| 20260905184842 | 32 | 332 | 4.8 | 4.8 | 0.00 | 0.00 | 0.00 | 53 | 1014.2 |
| 20260905184341 | 31 | 357 | 1.6 | 3.2 | 0.00 | 0.00 | 0.00 | 58 | 1014.2 |
| 20260905183840 | 31 | 310 | 1.6 | 3.2 | 0.00 | 0.00 | 0.00 | 57 | 1014.4 |
| 20260905183335 | 31 | 287 | 3.2 | 3.2 | 0.00 | 0.00 | 0.00 | 56 | 1014.4 |
| 20260905182830 | 30 | 328 | 9.7 | 11.3 | 0.00 | 0.00 | 0.00 | 58 | 1014.4 |
| 20260905182329 | 31 | 278 | 6.4 | 9.7 | 0.00 | 0.00 | 0.00 | 60 | 1014.6 |
| 20260905181825 | 30 | 195 | 6.4 | 9.7 | 0.00 | 0.00 | 0.00 | 61 | 1014.7 |
| 20260905181324 | 30 | 300 | 4.8 | 8.0 | 0.00 | 0.00 | 0.00 | 62 | 1014.6 |
| 20260905180823 | 30 | 264 | 8.0 | 9.7 | 0.00 | 0.00 | 0.00 | 62 | 1014.6 |
| 20260905180319 | 30 | 280 | 6.4 | 8.0 | 0.00 | 0.00 | 0.00 | 62 | 1014.8 |
| 20260905175814 | 30 | 292 | 4.8 | 8.0 | 0.00 | 0.00 | 0.00 | 61 | 1014.7 |
| 20260905175308 | 30 | 300 | 1.6 | 3.2 | 0.00 | 0.00 | 0.00 | 62 | 1015.0 |
| 20260905174804 | 29 | 317 | 1.6 | 1.6 | 0.00 | 0.00 | 0.00 | 62 | 1014.9 |
| 20260905174259 | 29 | 299 | 4.8 | 8.0 | 0.00 | 0.00 | 0.00 | 61 | 1014.9 |
| 20260905173755 | 29 | 327 | 8.0 | 11.3 | 0.00 | 0.00 | 0.00 | 61 | 1014.7 |
| 20260905173251 | 29 | 20 | 4.8 | 4.8 | 0.00 | 0.00 | 0.00 | 61 | 1014.8 |
| 20260905172750 | 30 | 313 | 4.8 | 4.8 | 0.00 | 0.00 | 0.00 | 61 | 1014.9 |
| 20260905172249 | 30 | 301 | 4.8 | 4.8 | 0.00 | 0.00 | 0.00 | 61 | 1014.9 |
| 20260905171745 | 30 | 184 | 9.7 | 11.3 | 0.00 | 0.00 | 0.00 | 61 | 1014.7 |
| 20260905171242 | 30 | 332 | 3.2 | 3.2 | 0.00 | 0.00 | 0.00 | 61 | 1014.9 |
| 20260905170738 | 30 | 1 | 3.2 | 3.2 | 0.00 | 0.00 | 0.00 | 61 | 1015.2 |
| 20260905170233 | 30 | 276 | 3.2 | 4.8 | 0.00 | 0.00 | 0.00 | 62 | 1015.0 |
| 20260905165732 | 30 | 260 | 1.6 | 1.6 | 0.00 | 0.00 | 0.00 | 63 | 1015.0 |
| 20260905165228 | 30 | 336 | 6.4 | 8.0 | 0.00 | 0.00 | 0.00 | 62 | 1015.3 |
| 20260905164728 | 29 | 300 | 4.8 | 4.8 | 0.00 | 0.00 | 0.00 | 63 | 1015.3 |
| 20260905164222 | 29 | 55 | 6.4 | 9.7 | 0.00 | 0.00 | 0.00 | 63 | 1015.4 |
| 20260905163719 | 29 | 250 | 3.2 | 3.2 | 0.00 | 0.00 | 0.00 | 64 | 1015.8 |
| 20260905163215 | 29 | 124 | 4.8 | 8.0 | 0.00 | 0.00 | 0.00 | 63 | 1015.4 |
| 20260905162711 | 28 | 288 | 9.7 | 11.3 | 0.00 | 0.00 | 0.00 | 64 | 1015.8 |
| 20260905162210 | 28 | 283 | 6.4 | 9.7 | 0.00 | 0.00 | 0.00 | 65 | 1015.8 |
| 20260905161705 | 28 | 263 | 8.0 | 9.7 | 0.00 | 0.00 | 0.00 | 64 | 1016.0 |
| 20260905161203 | 28 | 153 | 6.4 | 9.7 | 0.00 | 0.00 | 0.00 | 66 | 1015.7 |
| 20260905160656 | 28 | 289 | 0.0 | 0.0 | 0.00 | 0.00 | 0.00 | 67 | 1015.8 |
| 20260905160155 | 28 | 281 | 1.6 | 3.2 | 0.00 | 0.00 | 0.00 | 67 | 1015.9 |
| 20260905155650 | 28 | 318 | 8.0 | 9.7 | 0.00 | 0.00 | 0.00 | 65 | 1016.5 |
| 20260905155149 | 28 | 282 | 1.6 | 1.6 | 0.00 | 0.00 | 0.00 | 64 | 1016.0 |
| 20260905154644 | 28 | 270 | 3.2 | 4.8 | 0.00 | 0.00 | 0.00 | 64 | 1016.4 |
| 20260905154139 | 28 | 271 | 0.0 | 1.6 | 0.00 | 0.00 | 0.00 | 67 | 1016.7 |
| 20260905153635 | 28 | 298 | 1.6 | 1.6 | 0.00 | 0.00 | 0.00 | 67 | 1016.8 |
| 20260905153130 | 28 | 276 | 6.4 | 9.7 | 0.00 | 0.00 | 0.00 | 67 | 1016.7 |
| 20260905152625 | 27 | 291 | 4.8 | 8.0 | 0.00 | 0.00 | 0.00 | 68 | 1016.4 |
| 20260905152119 | 28 | 271 | 4.8 | 4.8 | 0.00 | 0.00 | 0.00 | 68 | 1016.7 |
| 20260905151614 | 28 | 288 | 3.2 | 3.2 | 0.00 | 0.00 | 0.00 | 69 | 1016.8 |
| 20260905151104 | 28 | 299 | 6.4 | 9.7 | 0.00 | 0.00 | 0.00 | 69 | 1016.6 |
| 20260905150600 | 28 | 350 | 8.0 | 9.7 | 0.00 | 0.00 | 0.00 | 68 | 1016.4 |
| 20260905150057 | 28 | 7 | 3.2 | 8.0 | 0.00 | 0.00 | 0.00 | 69 | 1016.3 |
| 20260905145551 | 28 | 343 | 11.3 | 17.7 | 0.00 | 0.00 | 0.00 | 69 | 1016.7 |
| 20260905145050 | 28 | 296 | 4.8 | 8.0 | 0.00 | 0.00 | 0.00 | 73 | 1016.4 |
| 20260905144545 | 28 | 304 | 3.2 | 4.8 | 0.00 | 0.00 | 0.00 | 72 | 1016.4 |
| 20260905144044 | 28 | 345 | 3.2 | 4.8 | 0.00 | 0.00 | 0.00 | 72 | 1015.8 |
| 20260905143544 | 28 | 336 | 4.8 | 8.0 | 0.00 | 0.00 | 0.00 | 72 | 1015.8 |
| 20260905143039 | 28 | 257 | 0.0 | 1.6 | 0.00 | 0.00 | 0.00 | 72 | 1015.8 |
| 20260905142537 | 28 | 298 | 1.6 | 3.2 | 0.00 | 0.00 | 0.00 | 71 | 1016.0 |
| 20260905142033 | 28 | 195 | 6.4 | 8.0 | 0.00 | 0.00 | 0.00 | 71 | 1016.0 |
| 20260905141527 | 28 | 221 | 8.0 | 9.7 | 0.00 | 0.00 | 0.00 | 71 | 1015.8 |
| 20260905141024 | 28 | 152 | 8.0 | 11.3 | 0.00 | 0.00 | 0.00 | 71 | 1015.8 |
| 20260905140524 | 28 | 314 | 4.8 | 8.0 | 0.00 | 0.00 | 0.00 | 71 | 1015.9 |
| 20260905140023 | 28 | 209 | 3.2 | 4.8 | 0.00 | 0.00 | 0.00 | 72 | 1015.7 |
| 20260905135519 | 28 | 303 | 1.6 | 1.6 | 0.00 | 0.00 | 0.00 | 71 | 1015.7 |
| 20260905135013 | 28 | 305 | 1.6 | 3.2 | 0.00 | 0.00 | 0.00 | 71 | 1015.8 |
| 20260905134508 | 28 | 281 | 3.2 | 3.2 | 0.00 | 0.00 | 0.00 | 72 | 1015.8 |
| 20260905134007 | 27 | 327 | 4.8 | 4.8 | 0.00 | 0.00 | 0.00 | 73 | 1015.8 |
| 20260905133503 | 27 | 251 | 8.0 | 11.3 | 0.00 | 0.00 | 0.00 | 73 | 1015.8 |
| 20260905133002 | 27 | 345 | 1.6 | 3.2 | 0.00 | 0.00 | 0.00 | 74 | 1015.7 |
| 20260905132457 | 26 | 302 | 6.4 | 8.0 | 0.00 | 0.00 | 0.00 | 75 | 1015.8 |
| 20260905131951 | 26 | 269 | 6.4 | 8.0 | 0.00 | 0.00 | 0.00 | 75 | 1015.9 |
| 20260905131447 | 26 | 337 | 6.4 | 9.7 | 0.00 | 0.00 | 0.00 | 75 | 1015.6 |
| 20260905130942 | 26 | 7 | 11.3 | 14.5 | 0.00 | 0.00 | 0.00 | 75 | 1015.6 |
| 20260905130442 | 26 | 319 | 3.2 | 4.8 | 0.00 | 0.00 | 0.00 | 76 | 1015.8 |
| 20260905125941 | 26 | 337 | 8.0 | 12.9 | 0.00 | 0.00 | 0.00 | 76 | 1015.5 |
| 20260905125436 | 26 | 281 | 3.2 | 8.0 | 0.00 | 0.00 | 0.00 | 76 | 1015.7 |
| 20260905124932 | 26 | 283 | 3.2 | 3.2 | 0.00 | 0.00 | 0.00 | 78 | 1015.9 |
| 20260905124428 | 25 | 291 | 3.2 | 3.2 | 0.00 | 0.00 | 0.00 | 79 | 1015.8 |
| 20260905123928 | 25 | 273 | 8.0 | 12.9 | 0.00 | 0.00 | 0.00 | 79 | 1015.5 |
| 20260905123425 | 25 | 308 | 4.8 | 4.8 | 0.00 | 0.00 | 0.00 | 79 | 1015.7 |
| 20260905122920 | 25 | 279 | 4.8 | 9.7 | 0.00 | 0.00 | 0.00 | 79 | 1015.6 |
| 20260905122419 | 25 | 270 | 4.8 | 8.0 | 0.00 | 0.00 | 0.00 | 80 | 1015.7 |
| 20260905121915 | 25 | 317 | 4.8 | 4.8 | 0.00 | 0.00 | 0.00 | 81 | 1015.6 |
| 20260905121411 | 24 | 306 | 4.8 | 8.0 | 0.00 | 0.00 | 0.00 | 82 | 1015.8 |
| 20260905120909 | 24 | 335 | 9.7 | 12.9 | 0.00 | 0.00 | 0.00 | 82 | 1015.6 |
| 20260905120404 | 23 | 288 | 1.6 | 3.2 | 0.00 | 0.00 | 0.00 | 83 | 1015.6 |
| 20260905115859 | 23 | 299 | 6.4 | 9.7 | 0.00 | 0.00 | 0.00 | 83 | 1015.7 |
| 20260905115358 | 23 | 286 | 6.4 | 8.0 | 0.00 | 0.00 | 0.00 | 84 | 1015.6 |
| 20260905114853 | 23 | 336 | 9.7 | 11.3 | 0.00 | 0.00 | 0.00 | 84 | 1015.6 |
| 20260905114352 | 23 | 272 | 8.0 | 9.7 | 0.00 | 0.00 | 0.00 | 84 | 1015.5 |
| 20260905113852 | 23 | 331 | 6.4 | 11.3 | 0.00 | 0.00 | 0.00 | 84 | 1015.8 |
| 20260905113348 | 23 | 291 | 12.9 | 16.1 | 0.00 | 0.00 | 0.00 | 85 | 1015.5 |
| 20260905112843 | 23 | 98 | 4.8 | 4.8 | 0.00 | 0.00 | 0.00 | 84 | 1015.3 |
| 20260905112337 | 23 | 349 | 8.0 | 9.7 | 0.00 | 0.00 | 0.00 | 84 | 1015.4 |
| 20260905111833 | 23 | 304 | 6.4 | 8.0 | 0.00 | 0.00 | 0.00 | 84 | 1015.6 |
| 20260905111327 | 23 | 354 | 6.4 | 9.7 | 0.00 | 0.00 | 0.00 | 83 | 1015.5 |